EW2910 Weather Reports


Display with metric or nautical units.
time (UTC)temp
F
wind
direction
speed
MPH
gust
MPH
rain 1hr
in
rain 24hr
in
rain mn
in
humidity
%
barometer
mb
20260902040106 78 0 0.0 0.0 0.00 0.56 0.00 96 1016.1
20260902034601 77 0 0.0 0.0 0.00 0.56 0.56 96 1016.2
20260902033110 77 0 0.0 0.0 0.00 0.56 0.56 96 1016.4
20260902031606 77 0 0.0 0.0 0.00 0.56 0.56 96 1016.6
20260902030110 77 0 0.0 0.0 0.00 0.56 0.56 95 1016.4
20260902024608 77 0 0.0 0.0 0.00 0.56 0.56 95 1016.7
20260902023103 77 0 0.0 0.0 0.01 0.56 0.56 95 1016.5
20260902021605 77 0 0.0 0.0 0.04 0.56 0.56 95 1016.5
20260902020105 77 0 0.0 0.0 0.04 0.56 0.56 95 1016.5
20260902014602 78 0 0.0 0.0 0.04 0.56 0.56 94 1016.5
20260902013102 78 0 1.0 8.0 0.03 0.55 0.55 92 1016.5
20260902011601 80 0 0.0 0.0 0.00 0.52 0.52 92 1016.3
20260902010116 80 0 0.0 0.0 0.00 0.52 0.52 91 1016.1
20260902004602 80 0 0.0 0.0 0.00 0.52 0.52 92 1016.2
20260902003104 80 0 0.0 0.0 0.00 0.52 0.52 91 1016.0
20260902001625 80 0 0.0 0.0 0.00 0.52 0.52 91 1015.8
20260902000103 80 0 0.0 0.0 0.00 0.52 0.52 91 1015.9
20260901234602 81 0 0.0 0.0 0.00 0.52 0.52 91 1015.8
20260901233102 82 0 0.0 3.0 0.00 0.52 0.52 91 1015.7
20260901231602 82 0 1.0 6.0 0.00 0.52 0.52 90 1015.7
20260901230101 82 0 0.0 3.0 0.00 0.52 0.52 90 1015.9
20260901224616 82 0 0.0 0.0 0.01 0.52 0.52 90 1015.4
20260901223103 82 0 0.0 3.0 0.01 0.52 0.52 90 1015.6
20260901221605 81 0 0.0 6.0 0.01 0.52 0.52 89 1015.6
20260901220105 81 6 3.0 13.0 0.01 0.52 0.52 87 1015.3
20260901214604 85 0 0.0 7.0 0.00 0.51 0.51 84 1015.1
20260901213122 84 0 0.0 8.0 0.01 0.51 0.51 85 1015.2
20260901211602 84 6 0.0 7.0 0.01 0.51 0.51 84 1015.2
20260901210117 84 61 1.0 6.0 0.01 0.51 0.51 85 1015.3
20260901204603 83 0 0.0 8.0 0.01 0.57 0.51 88 1015.4
20260901203100 84 84 2.0 12.0 0.01 0.56 0.50 86 1015.5
20260901201601 85 105 3.0 11.0 0.01 0.56 0.50 86 1015.5
20260901200114 85 61 3.0 9.0 0.01 0.56 0.50 87 1015.7
20260901194603 83 112 1.0 7.0 0.01 0.56 0.50 88 1015.8
20260901193112 83 55 0.0 4.0 0.00 0.55 0.49 87 1015.8
20260901191605 82 0 0.0 7.0 0.00 0.55 0.49 88 1015.9
20260901190106 81 58 2.0 7.0 0.00 0.55 0.49 89 1015.9
20260901184610 80 49 4.0 15.0 0.00 0.55 0.49 91 1016.1
20260901183108 81 60 5.0 10.0 0.00 0.55 0.49 88 1016.4
20260901181603 83 118 3.0 12.0 0.00 0.55 0.49 88 1016.6
20260901180100 88 0 0.0 4.0 0.00 0.55 0.49 81 1016.7
20260901174600 85 0 0.0 0.0 0.07 0.55 0.49 88 1016.5
20260901173100 81 112 0.0 2.0 0.16 0.55 0.49 91 1016.9
20260901171602 80 0 0.0 2.0 0.27 0.55 0.49 89 1017.3
20260901170108 79 0 0.0 0.0 0.38 0.55 0.49 94 1017.3
20260901164612 78 0 0.0 7.0 0.34 0.48 0.42 93 1017.4
20260901163114 79 0 0.0 4.0 0.30 0.39 0.33 94 1017.6
20260901161625 79 0 0.0 6.0 0.19 0.28 0.22 92 1017.5
20260901160103 79 33 3.0 8.0 0.08 0.17 0.11 90 1017.8
20260901154620 80 0 0.0 9.0 0.05 0.14 0.08 88 1017.6
20260901153108 84 0 1.0 5.0 0.00 0.09 0.03 86 1017.6
20260901151605 84 13 1.0 5.0 0.02 0.09 0.03 86 1017.7
20260901150117 84 0 0.0 4.0 0.02 0.09 0.03 88 1017.5
20260901144603 83 68 0.0 4.0 0.02 0.09 0.03 91 1017.5
20260901143102 82 0 0.0 6.0 0.02 0.09 0.03 90 1017.3
20260901141605 83 60 1.0 5.0 0.00 0.07 0.01 86 1017.4
20260901140106 84 0 2.0 5.0 0.00 0.07 0.01 85 1017.2
20260901134601 83 72 2.0 5.0 0.00 0.07 0.01 87 1017.0
20260901133104 83 0 1.0 4.0 0.00 0.07 0.01 91 1017.0
20260901131606 82 62 1.0 5.0 0.00 0.07 0.01 93 1017.2
20260901124606 80 0 0.0 3.0 0.00 0.07 0.01 96 1016.9
20260901123102 79 0 0.0 0.0 0.00 0.07 0.01 97 1016.7
20260901121610 78 0 0.0 3.0 0.00 0.07 0.01 98 1016.7
20260901120114 78 0 0.0 1.0 0.00 0.07 0.01 98 1016.4
20260901114609 77 0 0.0 2.0 0.00 0.07 0.01 98 1016.5
20260901113103 77 0 0.0 0.0 0.00 0.07 0.01 98 1016.4
20260901111604 76 0 0.0 0.0 0.00 0.07 0.01 99 1016.2
20260901110103 76 0 0.0 1.0 0.00 0.07 0.01 98 1016.0
20260901104605 76 0 0.0 0.0 0.00 0.07 0.01 98 1016.0
20260901103107 76 0 0.0 0.0 0.00 0.07 0.01 98 1016.0
20260901101604 76 0 0.0 0.0 0.00 0.07 0.01 98 1015.9
20260901100103 76 0 0.0 1.0 0.00 0.07 0.01 98 1015.8
20260901094604 76 0 0.0 1.0 0.01 0.07 0.01 98 1015.7
20260901093103 76 0 0.0 2.0 0.01 0.07 0.01 98 1015.7
20260901091620 76 0 0.0 3.0 0.01 0.07 0.01 98 1015.7
20260901090105 76 0 0.0 0.0 0.01 0.07 0.01 98 1015.4
20260901084608 76 0 0.0 0.0 0.00 0.06 0.00 98 1015.3
20260901083109 76 0 0.0 0.0 0.00 0.06 0.00 98 1015.3
20260901081602 76 0 0.0 1.0 0.00 0.06 0.00 98 1015.4
20260901080107 76 0 0.0 0.0 0.00 0.06 0.00 98 1015.4
20260901074605 76 0 0.0 0.0 0.00 0.06 0.00 98 1015.6
20260901073108 76 0 0.0 1.0 0.00 0.06 0.00 98 1015.6
20260901071602 76 0 0.0 0.0 0.00 0.06 0.00 97 1015.5
20260901064619 76 0 0.0 1.0 0.00 0.06 0.00 97 1016.0
20260901063103 76 0 0.0 1.0 0.00 0.06 0.00 97 1016.4
20260901061620 76 0 0.0 1.0 0.00 0.06 0.00 97 1016.8
20260901060118 76 0 0.0 1.0 0.00 0.06 0.00 97 1016.9
20260901054604 76 0 0.0 2.0 0.00 0.06 0.00 97 1017.0
20260901053106 76 0 0.0 1.0 0.00 0.06 0.00 96 1017.2
20260901051600 76 0 0.0 0.0 0.00 0.06 0.00 96 1017.4
20260901050105 76 0 0.0 1.0 0.00 0.06 0.00 96 1017.4
20260901044606 76 0 0.0 1.0 0.00 0.06 0.00 96 1017.5
20260901043105 76 327 0.0 0.0 0.00 0.06 0.00 96 1017.4
20260901041601 77 0 0.0 0.0 0.00 0.06 0.00 95 1017.6